Regional Weather Roundup
Issued by NWS

Home | Current Version | Previous Version | Graphics & Text | Print | Product List | Glossary On
Versions: 1 2 3 4 5 6 7 8 9 10 11 12 13 14 15 16 17 18 19 20 21 22 23 24 25 26 27 28 29 30 31 32 33 34 35 36 37 38 39 40 41 42 43 44 45 46 47 48 49 50
000
ASUS43 KMKX 231920
RWRWI

WISCONSIN REGIONAL WEATHER ROUNDUP
NATIONAL WEATHER SERVICE MILWAUKEE/SULLIVAN WI
100 PM CST MON JAN 23 2017

NOTE: "FAIR" INDICATES FEW OR NO CLOUDS BELOW 12,000 FEET WITH NO
SIGNIFICANT WEATHER AND/OR OBSTRUCTIONS TO VISIBILITY.

WIZ001-002-006>008-014>016-023>028-232000-
NORTHWEST WISCONSIN

CITY           SKY/WX    TMP DP  RH WIND       PRES   REMARKS
SUPERIOR ARPT  CLOUDY    39  35  83 S5        29.77F
ASHLAND        CLOUDY    37  36  96 CALM      29.77F
HAYWARD        CLOUDY    37  34  89 SW5       29.77F WCI  33
SIREN          CLOUDY    34  34  99 W6        29.80S FOG     WCI  29
CUMBERLAND     CLOUDY    32  32 100 SW5       29.78F WCI  27
RICE LAKE      CLOUDY    34  34 100 CALM      29.79F
CHETEK         CLOUDY    36  34  92 W3        29.78F
LADYSMITH      CLOUDY    36  36  99 CALM      29.78F FOG
EAU CLAIRE     CLOUDY    34  33  96 SW8       29.79F FOG     WCI  27
MENOMONIE        N/A    N/A N/A N/A MISG        N/A
NEW RICHMOND   CLOUDY    34  34 100 W7        29.81S FOG     WCI  28
OSCEOLA        CLOUDY    35  35 100 SW6       29.84S FOG     WCI  30
$$

WIZ003>005-009-010-017-018-232000-
NORTH CENTRAL WISCONSIN

CITY           SKY/WX    TMP DP  RH WIND       PRES   REMARKS
MANITOWISH WTR CLOUDY    33  33 100 CALM      29.74F
ARBOR VITAE    CLOUDY    37  35  95 CALM      29.74F
WOODRUFF       CLOUDY    37  35  95 CALM      29.74F
RHINELANDER    CLOUDY    37  34  89 CALM      29.74F
EAGLE RIVER    CLOUDY    36  34  94 CALM      29.73F
LAND O LAKES   CLOUDY    37  34  92 CALM      29.75F
PHILLIPS       CLOUDY    34  34 100 NW3       29.75S FOG
TOMAHAWK       CLOUDY    35  32  89 W3        29.76S
MEDFORD        FOG       33  33  99 W6        29.75F VSB 1/4 WCI  28
MERRILL        CLOUDY    36  35  94 W3          N/A
$$

WIZ029-030-035-036-043>047-232000-
CENTRAL WISCONSIN

CITY           SKY/WX    TMP DP  RH WIND       PRES   REMARKS
WAUSAU         CLOUDY    35  33  92 W6        29.75S WCI  30
MOSINEE        CLOUDY    36  36 100 W3        29.77S
MARSHFIELD     FOG       34  33  96 NW7       29.76S VSB 1/4 WCI  28
STEVENS POINT  CLOUDY    36  33  92 W3        29.76F
WAUPACA        CLOUDY    40  35  81 CALM      29.77F
WAUTOMA        CLOUDY    38  35  89 W9        29.78F WCI  31
WISC RAPIDS    CLOUDY    35  35 100 NW8       29.78F WCI  29
CAMP DOUGLAS   CLOUDY    37  37 100 W7        29.77F WCI  32
$$

WIZ011>013-019>022-031-037>040-048>050-232000-
NORTHEAST WISCONSIN

CITY           SKY/WX    TMP DP  RH WIND       PRES   REMARKS
ANTIGO         CLOUDY    34  33  95 CALM      29.74F
SHAWANO        CLOUDY    41  35  79 CALM      29.76F
OCONTO         CLOUDY    37  34  87 NW5       29.76S WCI  34
STURGEON BAY   FOG       36  36 100 NW7       29.75F VSB 1/2 WCI  30
GREEN BAY      CLOUDY    39  36  89 NW5       29.76F
MANITOWOC      CLOUDY    39  37  92 MISG      29.76F
APPLETON       CLOUDY    37  37 100 VRB3      29.75F
CLINTONVILLE   CLOUDY    37  34  87 CALM      29.76F
OSHKOSH        CLOUDY    38  35  89 NW6       29.75F WCI  33
$$

WIZ032>034-041-042-053>061-232000-
SOUTHWEST WISCONSIN

CITY           SKY/WX    TMP DP  RH WIND       PRES   REMARKS
LA CROSSE      CLOUDY    39  34  82 CALM      29.81F
SPARTA         CLOUDY    35  34  96 W5        29.81F WCI  31
VIROQUA        CLOUDY    34  34 100 CALM      29.79F
BOSCOBEL       CLOUDY    41  34  76 W7        29.81F
PRAIRIE DU CHI CLOUDY    37  32  82 NW6       29.82F WCI  33
PLATTEVILLE    CLOUDY    38  37  96 W6        29.80F WCI  33
$$

WIZ056-057-062-063-064-067-068-232000-
SOUTH CENTRAL WISCONSIN

CITY           SKY/WX    TMP DP  RH WIND       PRES   REMARKS
REEDSBURG      CLOUDY    37  37 100 NW6       29.77F WCI  32
BARABOO/DELLS  CLOUDY    37  35  92 NW6       29.77F WCI  32
LONE ROCK      CLOUDY    41  34  76 NW7       29.79F
MINERAL POINT  CLOUDY    41  36  81 W7        29.78F
MADISON        CLOUDY    40  35  83 NW7       29.77F
MIDDLETON      CLOUDY    40  40 100 NW6       29.77F
WATERTOWN      CLOUDY    37  37  99 NW5       29.76F WCI  33
MONROE         CLOUDY    39  36  87 NW7       29.76F WCI  34
JANESVILLE     CLOUDY    43  37  81 N7        29.76F
$$

WIZ051-052-058>065-066-070>072-232000-
SOUTHEAST WISCONSIN

CITY           SKY/WX    TMP DP  RH WIND       PRES   REMARKS
MILWAUKEE      CLOUDY    42  37  82 NW8       29.74F
WAUKESHA       CLOUDY    36  36 100 W7        29.76F FOG     WCI  30
MILWAUKEE/TIMM CLOUDY    39  36  87 N7        29.76F WCI  34
RACINE         CLOUDY    41  36  82 NW6       29.75F
KENOSHA        CLOUDY    41  37  86 NW8       29.74F
FOND DU LAC    CLOUDY    39  34  82 NW6       29.75F WCI  35
SHEBOYGAN      CLOUDY    41  37  86 NW7       29.74F
WEST BEND      CLOUDY    37  37 100 NW6       29.75F WCI  33
JUNEAU         CLOUDY    36  35  96 NW5       29.77S WCI  32
$$

LSZ147-162-232000-
LAKE SUPERIOR

STATION/POSITION TIME  TEMP    WIND        PRES    WAVE
                       AIR SEA DIR/SP/G            HT/PER
                 (UTC) (F)     (DEG/KT/KT) (MB)    (FT/S)
DEVILS ISLAND    1900   34     240/  7/  8 1008.9F
PORT WING        1840   36      CALM  /  2 1008.8S
SAXON HARBOR     1840   37     220/  2/  4 1008.5S
$$

LMZ867-665-643>646-232000-
LAKE MICHIGAN

STATION/POSITION TIME  TEMP    WIND        PRES    WAVE
                       AIR SEA DIR/SP/G            HT/PER
                 (UTC) (F)     (DEG/KT/KT) (MB)    (FT/S)
NORTHPORT PIER   1840   33     320/  3/  4 1007.5F
SISTER BAY       1835   34     360/  8/  8   N/A
KEWAUNEE LAKESHO 1854   38     310/  7/ 10 1007.1F
SHEBOYGAN LAKESH 1900   39     350/  7/  8 1007.6F
PORT WASHINGTON  1830   40     300/  7/ 10 1008.8S
KENOSHA   LAKESH 1900   40     320/  6/  8 1007.5
$$

TC  - TEMPERATURE IN CELSIUS
VSB - VISIBILITY IN STATUTE MILES
WCI - WIND CHILL INDEX
HX  - HEAT INDEX




USA.gov is the U.S. government's official web portal to all federal, state and local government web resources and services.